Simultaneous Nadir Overpasses (SNOs) Predictions

Prediction of SNOs between GOES-16 and AQUA Satellite Orbit:

Table of predicted SNOs for the next 14.0 days since TLE Epoch: 6/13/2025
Index Date Time (GOES-16) GOES-16 Lat,Lon AQUA Lat,Lon Distance(km) Time Diff (sec)
1 06/15/2025 21:29:46 -0.01,-104.72 0.74,-101.40 378.24 80
2 06/16/2025 09:48:55 0.01,-104.72 0.27,-106.03 148.20 80
3 06/18/2025 09:25:56 0.01,-104.71 -0.76,-101.05 415.73 80
4 06/18/2025 21:45:13 -0.01,-104.70 -0.26,-105.71 115.92 80
5 06/20/2025 21:27:35 -0.00,-104.68 0.87,-100.75 448.25 80
6 06/21/2025 09:46:44 0.00,-104.68 0.13,-105.37 78.07 80
7 06/23/2025 09:23:44 -0.00,-104.66 -0.91,-100.39 485.62 80
8 06/23/2025 21:43:02 0.00,-104.65 -0.07,-105.05 46.23 80
9 06/26/2025 09:44:30 0.00,-104.63 0.04,-104.69 8.55 80
